• Em Portugal
  • Lista de países
  • Para 7 dias
  • Temperatura da água
  • Mapas de satélite
  • Mapa do tempo
  • Widgets de tempo
  • user-avatar
    Iniciar Sessão

    Previsão horária em Altaj

    Hoje, 23 Fevereiro, Sexta-feira

    Tempo Temperatura Precipitação Vento Pressão Humidade
    00:00 -18°C° 0 mm 2 m/s 558 mmHg 51%
    01:00 -19°C° 0 mm 2 m/s 559 mmHg 53%
    02:00 -19°C° 0 mm 2 m/s 559 mmHg 55%
    03:00 -19°C° 0 mm 2 m/s 559 mmHg 56%
    04:00 -19°C° 0 mm 2 m/s 559 mmHg 58%
    05:00 -20°C° 0 mm 2 m/s 559 mmHg 59%
    06:00 -18°C° 0 mm 1 m/s 560 mmHg 61%
    07:00 -17°C° 0 mm 1 m/s 560 mmHg 62%
    08:00 -16°C° 0 mm 1 m/s 561 mmHg 63%
    09:00 -14°C° 0 mm 1 m/s 562 mmHg 64%
    10:00 -13°C° 0 mm 1 m/s 562 mmHg 61%
    11:00 -12°C° 0 mm 1 m/s 562 mmHg 58%
    12:00 -11°C° 0 mm 1 m/s 563 mmHg 57%
    13:00 -11°C° 0 mm 1 m/s 563 mmHg 60%
    14:00 -11°C° 0 mm 1 m/s 563 mmHg 63%
    15:00 -11°C° 0 mm 1 m/s 563 mmHg 66%
    16:00 -12°C° 0 mm 1 m/s 563 mmHg 65%
    17:00 -13°C° 0 mm 1 m/s 562 mmHg 65%
    18:00 -15°C° 0 mm 1 m/s 562 mmHg 67%
    19:00 -15°C° 0 mm 1 m/s 562 mmHg 66%
    20:00 -17°C° 0 mm 2 m/s 562 mmHg 66%
    21:00 -17°C° 0 mm 2 m/s 562 mmHg 65%
    22:00 -18°C° 0 mm 2 m/s 562 mmHg 64%
    23:00 -18°C° 0 mm 2 m/s 562 mmHg 64%

    Amanhã, 24 Fevereiro, Sábado

    Tempo Temperatura Precipitação Vento Pressão Humidade
    00:00 -18°C° 0 mm 2 m/s 562 mmHg 63%
    01:00 -18°C° 0 mm 2 m/s 562 mmHg 61%
    02:00 -18°C° 0 mm 2 m/s 562 mmHg 60%
    03:00 -18°C° 0 mm 2 m/s 562 mmHg 58%
    04:00 -18°C° 0 mm 2 m/s 562 mmHg 55%
    05:00 -18°C° 0 mm 2 m/s 562 mmHg 53%
    06:00 -18°C° 0 mm 2 m/s 562 mmHg 51%
    07:00 -17°C° 0 mm 2 m/s 562 mmHg 50%
    08:00 -15°C° 0 mm 2 m/s 563 mmHg 50%
    09:00 -14°C° 0 mm 2 m/s 563 mmHg 50%
    10:00 -12°C° 0 mm 2 m/s 564 mmHg 50%
    11:00 -10°C° 0 mm 2 m/s 564 mmHg 50%
    12:00 -9°C° 0 mm 3 m/s 564 mmHg 50%
    13:00 -9°C° 0 mm 3 m/s 564 mmHg 49%
    14:00 -9°C° 0 mm 3 m/s 564 mmHg 47%
    15:00 -9°C° 0 mm 3 m/s 563 mmHg 45%
    16:00 -12°C° 0 mm 3 m/s 563 mmHg 43%
    17:00 -13°C° 0 mm 3 m/s 562 mmHg 41%
    18:00 -14°C° 0 mm 3 m/s 562 mmHg 39%
    19:00 -14°C° 0 mm 3 m/s 561 mmHg 40%
    20:00 -14°C° 0 mm 3 m/s 561 mmHg 42%
    21:00 -14°C° 0 mm 3 m/s 561 mmHg 44%
    22:00 -14°C° 0 mm 3 m/s 561 mmHg 45%
    23:00 -14°C° 0 mm 3 m/s 561 mmHg 46%

    Depois de amanhã, 25 Fevereiro, Domingo

    Tempo Temperatura Precipitação Vento Pressão Humidade
    00:00 -14°C° 0 mm 3 m/s 561 mmHg 48%
    01:00 -15°C° 0 mm 3 m/s 560 mmHg 48%
    02:00 -15°C° 0 mm 3 m/s 560 mmHg 48%
    03:00 -15°C° 0 mm 3 m/s 560 mmHg 49%
    04:00 -14°C° 0 mm 2 m/s 560 mmHg 49%
    05:00 -15°C° 0 mm 2 m/s 560 mmHg 49%
    06:00 -15°C° 0 mm 2 m/s 560 mmHg 49%
    07:00 -14°C° 0 mm 2 m/s 561 mmHg 51%
    08:00 -13°C° 0 mm 2 m/s 562 mmHg 52%
    09:00 -12°C° 0 mm 2 m/s 562 mmHg 54%
    10:00 -10°C° 0 mm 2 m/s 563 mmHg 54%
    11:00 -9°C° 0 mm 2 m/s 563 mmHg 54%
    12:00 -8°C° 0 mm 2 m/s 563 mmHg 54%
    13:00 -8°C° 0 mm 2 m/s 563 mmHg 53%
    14:00 -8°C° 0 mm 2 m/s 563 mmHg 53%
    15:00 -8°C° 0 mm 2 m/s 563 mmHg 53%
    16:00 -10°C° 0 mm 2 m/s 562 mmHg 50%
    17:00 -12°C° 0 mm 2 m/s 562 mmHg 47%
    18:00 -13°C° 0 mm 2 m/s 562 mmHg 45%
    19:00 -13°C° 0 mm 2 m/s 562 mmHg 42%
    20:00 -14°C° 0 mm 2 m/s 562 mmHg 40%
    21:00 -14°C° 0 mm 2 m/s 562 mmHg 38%
    22:00 -14°C° 0 mm 2 m/s 562 mmHg 37%
    23:00 -14°C° 0 mm 2 m/s 562 mmHg 36%

    26 Fevereiro, Segunda-feira

    Tempo Temperatura Precipitação Vento Pressão Humidade
    00:00 -15°C° 0 mm 2 m/s 562 mmHg 35%
    01:00 -15°C° 0 mm 2 m/s 562 mmHg 36%
    02:00 -13°C° 0 mm 1 m/s 562 mmHg 37%
    03:00 -13°C° 0 mm 1 m/s 562 mmHg 38%
    04:00 -13°C° 0 mm 1 m/s 562 mmHg 39%
    05:00 -13°C° 0 mm 1 m/s 562 mmHg 40%
    06:00 -14°C° 0 mm 1 m/s 562 mmHg 41%
    07:00 -13°C° 0 mm 1 m/s 562 mmHg 43%
    08:00 -12°C° 0 mm 1 m/s 563 mmHg 45%
    09:00 -10°C° 0 mm 1 m/s 564 mmHg 47%
    10:00 -9°C° 0 mm 1 m/s 564 mmHg 47%
    11:00 -8°C° 0 mm 1 m/s 564 mmHg 46%
    12:00 -7°C° 0 mm 1 m/s 564 mmHg 46%
    13:00 -8°C° 0 mm 1 m/s 564 mmHg 48%
    14:00 -8°C° 0 mm 1 m/s 564 mmHg 50%
    15:00 -8°C° 0 mm 1 m/s 563 mmHg 52%
    16:00 -9°C° 0 mm 1 m/s 563 mmHg 49%
    17:00 -11°C° 0 mm 1 m/s 562 mmHg 47%
    18:00 -12°C° 0 mm 1 m/s 562 mmHg 45%
    19:00 -12°C° 0 mm 1 m/s 562 mmHg 44%
    20:00 -13°C° 0 mm 1 m/s 562 mmHg 42%
    21:00 -13°C° 0 mm 1 m/s 562 mmHg 41%
    22:00 -13°C° 0 mm 1 m/s 562 mmHg 40%
    23:00 -15°C° 0 mm 2 m/s 561 mmHg 39%

    27 Fevereiro, Terça-feira

    Tempo Temperatura Precipitação Vento Pressão Humidade
    00:00 -15°C° 0 mm 2 m/s 561 mmHg 39%
    01:00 -15°C° 0 mm 2 m/s 561 mmHg 39%
    02:00 -15°C° 0 mm 2 m/s 560 mmHg 38%
    03:00 -16°C° 0 mm 2 m/s 560 mmHg 38%
    04:00 -16°C° 0 mm 2 m/s 560 mmHg 39%
    05:00 -16°C° 0 mm 2 m/s 560 mmHg 40%
    06:00 -17°C° 0 mm 3 m/s 560 mmHg 41%
    07:00 -16°C° 0 mm 3 m/s 560 mmHg 44%
    08:00 -15°C° 0 mm 3 m/s 560 mmHg 47%
    09:00 -13°C° 0 mm 3 m/s 561 mmHg 50%
    10:00 -12°C° 0 mm 3 m/s 561 mmHg 50%
    11:00 -10°C° 0 mm 3 m/s 561 mmHg 49%
    12:00 -9°C° 0 mm 3 m/s 561 mmHg 49%
    13:00 -9°C° 0 mm 3 m/s 560 mmHg 48%
    14:00 -9°C° 0 mm 3 m/s 560 mmHg 48%
    15:00 -9°C° 0 mm 3 m/s 559 mmHg 47%
    16:00 -12°C° 0 mm 3 m/s 559 mmHg 46%
    17:00 -12°C° 0 mm 2 m/s 559 mmHg 44%
    18:00 -13°C° 0 mm 2 m/s 558 mmHg 42%
    19:00 -14°C° 0 mm 2 m/s 558 mmHg 42%
    20:00 -14°C° 0 mm 2 m/s 558 mmHg 43%
    21:00 -15°C° 0 mm 2 m/s 558 mmHg 43%
    22:00 -15°C° 0 mm 2 m/s 558 mmHg 45%
    23:00 -15°C° 0 mm 2 m/s 558 mmHg 47%

    28 Fevereiro, Quarta-feira

    Tempo Temperatura Precipitação Vento Pressão Humidade
    00:00 -16°C° 0 mm 2 m/s 557 mmHg 49%
    01:00 -14°C° 0 mm 1 m/s 557 mmHg 50%
    02:00 -14°C° 0 mm 1 m/s 557 mmHg 51%
    03:00 -15°C° 0 mm 1 m/s 557 mmHg 52%
    04:00 -15°C° 0 mm 1 m/s 557 mmHg 53%
    05:00 -15°C° 0 mm 1 m/s 557 mmHg 54%
    06:00 -15°C° 0 mm 1 m/s 557 mmHg 55%
    07:00 -14°C° 0 mm 1 m/s 557 mmHg 56%
    08:00 -13°C° 0 mm 1 m/s 558 mmHg 57%
    09:00 -12°C° 0 mm 1 m/s 559 mmHg 59%
    10:00 -11°C° 0 mm 1 m/s 559 mmHg 56%
    11:00 -12°C° 0 mm 2 m/s 559 mmHg 54%
    12:00 -12°C° 0 mm 2 m/s 559 mmHg 51%
    13:00 -12°C° 0 mm 2 m/s 559 mmHg 56%
    14:00 -12°C° 0 mm 2 m/s 559 mmHg 60%
    15:00 -13°C° 0 mm 2 m/s 559 mmHg 64%
    16:00 -14°C° 0 mm 2 m/s 559 mmHg 66%
    17:00 -16°C° 0 mm 2 m/s 559 mmHg 68%
    18:00 -15°C° 0 mm 1 m/s 559 mmHg 70%
    19:00 -15°C° 0 mm 1 m/s 559 mmHg 70%
    20:00 -16°C° 0 mm 1 m/s 559 mmHg 71%
    21:00 -16°C° 0 mm 1 m/s 559 mmHg 71%
    22:00 -16°C° 0 mm 1 m/s 559 mmHg 71%
    23:00 -17°C° 0 mm 1 m/s 559 mmHg 70%
    Mostrar mais